Home   Weather   France   Agen   Past weeks
Flag for France

Past Weather in Agen, Lot-et-Garonne, France — Yesterday and Last 2 Weeks

Currently: 68 °F. Broken clouds. (Weather station: Agen Airport, France). See more current weather

Past Weather in Agen — Graph

°F

Agen Temperature Yesterday

Maximum temperature yesterday: 84 °F (at 4:00 pm)
Minimum temperature yesterday: 61 °F (at 4:30 am)
Average temperature yesterday: 72 °F

High & Low Weather Summary for the Past Weeks

 TemperatureHumidityPressure
High86 °F (Jun 5, 6:00 pm)100% (Jun 4, 6:00 am)30.15 "Hg (Jun 4, 6:00 am)
Low48 °F (Jun 13, 6:00 am)32% (Jun 13, 4:30 pm)29.74 "Hg (Jun 9, 4:30 am)
Average67 °F70%29.96 "Hg
* Reported Jun 3 7:00 am — Jun 18 7:30 am, Agen. Weather by CustomWeather, © 2024

Note: Actual official high and low records may vary slightly from our data, if they occured in-between our weather recording intervals... More about our weather records

Agen Weather History for the Previous 24 Hours

Scroll right to see more
 ConditionsComfort  
Time TempWeatherWind HumidityBarometerVisibility
7:30 am
Tue, Jun 18
66 °FSunny.7 mph83%29.86 "Hg10 mi
7:00 am66 °FPartly sunny.9 mph83%29.86 "HgN/A
6:30 am66 °FOvercast.8 mph83%29.83 "HgN/A
6:00 am66 °FPassing clouds.5 mph83%29.86 "HgN/A
5:30 am66 °FPassing clouds.5 mph83%29.83 "HgN/A
5:00 am68 °FPassing clouds.5 mph83%29.83 "HgN/A
4:30 am68 °FPassing clouds.7 mph83%29.83 "HgN/A
4:00 am68 °FPassing clouds.5 mph83%29.80 "HgN/A
3:30 am68 °FPassing clouds.13 mph83%29.77 "HgN/A
3:00 am68 °FPassing clouds.12 mph83%29.80 "HgN/A
2:30 am68 °FOvercast.12 mph83%29.80 "HgN/A
2:00 am68 °FOvercast.7 mph83%29.80 "HgN/A
1:30 am70 °FPassing clouds.10 mph83%29.80 "HgN/A
1:00 am70 °FClear.12 mph78%29.80 "Hg10 mi
12:30 am70 °FClear.12 mph78%29.83 "Hg10 mi
12:00 am70 °FClear.13 mph78%29.83 "Hg10 mi
11:30 pm
Mon, Jun 17
72 °FClear.12 mph73%29.83 "Hg10 mi
11:00 pm72 °FClear.12 mph73%29.83 "Hg10 mi
10:30 pm73 °FClear.13 mph69%29.83 "Hg10 mi
10:00 pm75 °FClear.14 mph65%29.80 "Hg10 mi
9:30 pm77 °FSunny.12 mph61%29.80 "Hg10 mi
9:00 pm79 °FSunny.12 mph58%29.80 "Hg10 mi
8:30 pm81 °FSunny.10 mph54%29.80 "Hg10 mi
8:00 pm81 °FSunny.7 mph51%29.80 "Hg10 mi
7:30 pm84 °FSunny.9 mph45%29.80 "Hg10 mi
6:30 pm84 °FSunny.10 mph48%29.80 "Hg10 mi
6:00 pm84 °FPassing clouds.9 mph48%29.83 "HgN/A
5:30 pm84 °FPassing clouds.9 mph48%29.83 "HgN/A
4:00 pm84 °FPassing clouds.8 mph45%29.83 "HgN/A
3:00 pm82 °FPassing clouds.9 mph51%29.86 "HgN/A
2:00 pm81 °FPassing clouds.7 mph58%29.86 "HgN/A
1:30 pm79 °FPassing clouds.10 mph58%29.86 "HgN/A
1:00 pm79 °FPassing clouds.8 mph58%29.89 "HgN/A
12:30 pm77 °FPassing clouds.10 mph61%29.89 "HgN/A
12:00 pm75 °FPassing clouds.10 mph61%29.89 "HgN/A
11:30 am75 °FPassing clouds.10 mph61%29.89 "HgN/A
11:00 am75 °FPassing clouds.8 mph61%29.89 "HgN/A
10:30 am73 °FPassing clouds.9 mph65%29.89 "HgN/A
10:00 am72 °FPassing clouds.6 mph69%29.89 "HgN/A
9:00 am68 °FSunny.2 mph73%29.89 "Hg10 mi
Weather by CustomWeather, © 2024

See weather overview